Home > Weather > Varese > Past weeks

Flag for Italy Past Weather in Varese, Italy — Yesterday and Last 2 Weeks

Now
72 °F

Broken clouds.


Feels Like: 76 °F
Forecast: 60 / 81 °F
Wind: 25 mph from North

Location: Lugano Airport

Current Time: Jun 26, 2016 at 9:01:00 PM

Latest Report: Jun 26, 2016 at 8:20 PM


Visibility: N/A

Pressure: 29.89 "Hg

Humidity: 57%

Dew Point: 55 °F

Location of VareseLocation

Past Weather in Varese — Graph

°F

Varese Temperature Yesterday

Maximum temperature yesterday: 79 °F (at 5:20 PM)
Minimum temperature yesterday: 64 °F (at 9:50 AM)
Average temperature yesterday: 71 °F

High & Low Weather Summary for the Past Weeks

 TemperatureHumidityPressure
High91 °F (Jun 23, 5:50 PM)100% (Jun 12, 5:20 AM)30.24 "Hg (Jun 12, 5:20 AM)
Low54 °F (Jun 15, 4:50 AM)32% (Jun 20, 2:20 PM)29.50 "Hg (Jun 14, 8:50 PM)
Average68 °F75%29.92 "Hg
* Reported Jun 11 8:20 PM — Jun 26 8:20 PM, Varese, Weather by CustomWeather, © 2016

Note: Actual official high and low records may vary slightly from our data, if they occured in-between our weather recording intervals... More about our weather records

Advertising

Varese Weather History for the Previous 24 Hours

Scroll right to see more
 ConditionsComfort  
Time TempWeatherWind HumidityBarometerVisibility
8:20 PM
Sun, Jun 26
72 °FBroken clouds.25 mph57%29.89 "HgN/A
7:20 PM73 °FThundershowers. Scattered clouds.12 mph61%29.89 "HgN/A
6:50 PM73 °FThundershowers. Scattered clouds.6 mph74%29.89 "HgN/A
6:20 PM77 °FThunderstorms. Partly sunny.8 mph79%29.89 "HgN/A
5:50 PM77 °FThundershowers. Broken clouds.3 mph74%29.89 "HgN/A
5:20 PM77 °FThundershowers. Broken clouds.6 mph65%29.86 "HgN/A
4:50 PM79 °FThundershowers. Scattered clouds.6 mph65%29.86 "HgN/A
4:20 PM81 °FPassing clouds.5 mph58%29.89 "HgN/A
3:50 PM84 °FPassing clouds.3 mph55%29.89 "HgN/A
3:20 PM82 °FPassing clouds.6 mph58%29.89 "HgN/A
2:50 PM82 °FPassing clouds.7 mph55%29.92 "HgN/A
2:20 PM82 °FScattered clouds.6 mph55%29.92 "HgN/A
1:50 PM82 °FScattered clouds.3 mph55%29.92 "HgN/A
1:20 PM79 °FScattered clouds.5 mph61%29.92 "HgN/A
12:50 PM77 °FPartly sunny.2 mph57%29.92 "HgN/A
12:20 PM77 °FScattered clouds.3 mph61%29.92 "HgN/A
11:50 AM77 °FPartly sunny.1 mph57%29.92 "HgN/A
11:20 AM73 °FPartly sunny.2 mph61%29.95 "HgN/A
10:50 AM72 °FPartly sunny.2 mph73%29.92 "HgN/A
10:20 AM72 °FPartly sunny.1 mph65%29.95 "HgN/A
9:50 AM72 °FBroken clouds.2 mph69%29.92 "HgN/A
9:20 AM70 °FBroken clouds.2 mph73%29.92 "HgN/A
8:50 AM68 °FPartly sunny.1 mph73%29.92 "HgN/A
8:20 AM66 °FScattered clouds.2 mph83%29.92 "HgN/A
7:50 AM66 °FScattered clouds.1 mph83%29.92 "HgN/A
7:20 AM64 °FScattered clouds.1 mph83%29.92 "HgN/A
6:50 AM63 °FScattered clouds.1 mph88%29.92 "HgN/A
6:20 AM63 °FPassing clouds.1 mph88%29.92 "HgN/A
5:50 AM63 °FPassing clouds.1 mph83%29.92 "HgN/A
5:20 AM63 °FMild.2 mph83%29.89 "HgN/A
4:50 AM64 °FClear.2 mph83%29.89 "Hg10 mi
4:20 AM64 °FMild.6 mph83%29.89 "HgN/A
3:50 AM66 °FPassing clouds.6 mph78%29.89 "HgN/A
3:20 AM66 °FClear.5 mph78%29.89 "HgN/A
2:50 AM66 °FPassing clouds.6 mph83%29.89 "HgN/A
2:20 AM68 °FPartly cloudy.3 mph78%29.89 "HgN/A
1:50 AM68 °FClear.3 mph78%29.89 "Hg10 mi
1:20 AM68 °FPartly cloudy.5 mph78%29.89 "HgN/A
12:50 AM66 °FOvercast.3 mph83%29.92 "HgN/A
12:20 AM66 °FOvercast.5 mph83%29.89 "HgN/A
11:50 PM
Sat, Jun 25
66 °FPassing clouds.3 mph83%29.89 "HgN/A
11:20 PM66 °FPassing clouds.3 mph83%29.92 "HgN/A
10:50 PM66 °FClear.3 mph83%29.89 "Hg10 mi
10:20 PM68 °FClear.3 mph78%29.89 "Hg10 mi
9:50 PM68 °FSunny.5 mph83%29.89 "Hg10 mi
9:20 PM68 °FSunny.3 mph83%29.86 "Hg10 mi
Weather by CustomWeather, © 2016

See weather overviewHow to use our weather pages